Location: Unspecified
(0.0000°N, 0.0000°E)
Time: 09:56:28
(UTC+00:00)

Courier 1B - Visible Passes

Search period start: 17 December 2017 00:00
Search period end: 27 December 2017 00:00
Orbit: 962 x 1209 km, 28.3° (Epoch: 16 December)

Date Brightness Start Highest point End Pass type
(mag) Time Alt. Az. Time Alt. Az. Time Alt. Az.
17 Dec 9.5 18:37:55 10° SSW 18:43:13 20° SSE 18:48:19 10° ESE visible
17 Dec 8.3 20:30:41 10° SW 20:36:21 51° SSW 20:36:21 51° SSW visible
18 Dec 8.2 19:36:54 10° SW 19:44:01 47° SSE 19:45:59 38° ESE visible
18 Dec 9.9 21:31:19 10° WSW 21:32:53 17° W 21:32:53 17° W visible
19 Dec 9.7 05:19:35 10° N 05:21:13 11° NNE 05:22:51 10° NE visible
19 Dec 8.8 18:43:15 10° SW 18:50:02 35° SSE 18:55:39 13° E visible
19 Dec 8.3 20:37:05 10° WSW 20:42:33 51° W 20:42:33 51° W visible
20 Dec 7.7 19:43:00 10° WSW 19:50:33 83° SSE 19:52:14 57° ENE visible
20 Dec 10.2 21:38:46 10° W 21:39:08 11° W 21:39:08 11° W visible
21 Dec 9.4 05:23:36 10° NNW 05:28:09 19° NNE 05:32:51 10° ENE visible
21 Dec 8.0 18:49:04 10° SW 18:56:39 61° SSE 19:01:56 19° ENE visible
21 Dec 8.9 20:44:04 10° W 20:48:51 33° WNW 20:48:51 33° WNW visible
22 Dec 9.5 04:31:02 10° N 04:34:11 14° NNE 04:37:22 10° NE visible
22 Dec 8.0 19:49:38 10° WSW 19:57:02 56° NNW 19:58:34 48° N visible
23 Dec 8.7 05:28:59 10° NW 05:34:51 34° NNE 05:40:56 10° E visible
23 Dec 7.9 18:55:24 10° WSW 19:03:07 78° NNW 19:08:17 21° NE visible
23 Dec 9.6 20:51:53 10° WNW 20:55:12 20° NW 20:55:12 20° NW visible
24 Dec 9.0 04:37:17 15° NNW 04:41:01 25° NNE 04:46:17 10° E visible
24 Dec 8.8 19:56:57 10° W 20:03:33 32° NNW 20:04:56 30° N visible
25 Dec 9.3 03:47:02 18° NNE 03:47:08 18° NNE 03:51:19 10° ENE visible
25 Dec 8.5 19:02:18 10° W 19:09:35 45° NNW 19:14:41 19° NNE visible
25 Dec 10.1 21:00:55 10° NW 21:01:34 11° NW 21:01:34 11° NW visible
26 Dec 8.2 04:43:41 21° NNW 04:47:40 45° NNE 04:53:57 10° E visible
26 Dec 9.4 20:05:09 10° WNW 20:10:16 19° NNW 20:11:18 19° NNW visible
